Weather History for KUNO - May, 2013

Change the Weather History Date:

Tuesday, May 21, 2013

  Actual Average Record
Temperature  
Mean Temperature 64 °F 67 °F  
Max Temperature 69 °F 78 °F 92 °F (1987)
Min Temperature 58 °F 56 °F 36 °F (1954)
Degree Days  
Heating Degree Days 1 2  
Month to date heating degree days 113 68  
Since 1 July heating degree days 4475 4330  
Cooling Degree Days 0 4  
Month to date cooling degree days 47 49  
Year to date cooling degree days 66 77  
Growing Degree Days 14 (Base 50)    
Moisture  
Dew Point 60 °F    
Average Humidity 88    
Maximum Humidity 100    
Minimum Humidity 76    
Precipitation  
Precipitation 0.23 in 0.14 in 2.15 in (1992)
Month to date precipitation 2.91 3.65  
Year to date precipitation 19.19 17.98  
Sea Level Pressure  
Sea Level Pressure 29.83 in    
Wind  
Wind Speed 7 mph (SW)    
Max Wind Speed 24 mph    
Max Gust Speed 33 mph    
Visibility 10 miles    
Events Rain , Thunderstorm    
T = Trace of Precipitation, MM = Missing Value Source: NWS Daily Summary

Daily Weather History Graph

Daily Weather History Graph

Search for Another Location

Airport or City:

Trip Planner

Search our weather history database for the weather conditions in past years. The results will help you decide how hot, cold, wet, or windy it might be!

Date:

Astronomy

May. 21, 2013 Rise Set
Actual Time 5:55 AM CDT 8:13 PM CDT
Civil Twilight 5:25 AM CDT 8:43 PM CDT
Nautical Twilight 4:49 AM CDT 9:19 PM CDT
Astronomical Twilight 4:10 AM CDT 9:59 PM CDT
Moon 4:32 PM CDT (5/21) 3:17 AM CDT (5/21)
Length of Visible Light 15h 17m
Length of Day
14h 18m
Waxing Gibbous, 84% of the Moon is Illuminated
May 21
Waxing Gibbous
May 24
Full
May 31
Last Quarter
Jun 8
New
Jun 16
First Quarter

Hourly Weather History & Observations

Time (CDT) Temp. Dew Point Humidity Pressure Visibility Wind Dir Wind Speed Gust Speed Precip Events Conditions
12:53 AM 63.0 °F 60.1 °F 90% 29.86 in 10.0 mi SW 18.4 mph 28.8 mph 0.06 in Rain , Thunderstorm Light Rain
1:09 AM 62.6 °F 60.8 °F 94% 29.89 in 9.0 mi SW 11.5 mph 24.2 mph 0.03 in Rain , Thunderstorm Light Rain
1:53 AM 63.0 °F 60.1 °F 90% 29.82 in 10.0 mi South 6.9 mph - 0.11 in Rain Light Rain
2:53 AM 61.0 °F 60.1 °F 97% 29.78 in 10.0 mi SSE 4.6 mph - 0.00 in   Clear
3:53 AM 61.0 °F 59.0 °F 93% 29.78 in 10.0 mi Calm Calm - N/A   Clear
4:53 AM 62.1 °F 59.0 °F 90% 29.79 in 10.0 mi South 4.6 mph - N/A   Clear
5:53 AM 61.0 °F 57.9 °F 90% 29.82 in 10.0 mi SW 6.9 mph - N/A   Clear
6:53 AM 61.0 °F 57.9 °F 90% 29.87 in 10.0 mi SW 10.4 mph - 0.01 in Rain Light Rain
7:00 AM 60.8 °F 59.0 °F 94% 29.90 in 9.0 mi SW 10.4 mph - 0.01 in Rain , Thunderstorm Light Rain
7:31 AM 60.8 °F 59.0 °F 94% 29.82 in 10.0 mi ENE 4.6 mph - 0.03 in   Scattered Clouds
7:53 AM 61.0 °F 59.0 °F 93% 29.76 in 10.0 mi ENE 4.6 mph - 0.03 in   Clear
8:53 AM 64.9 °F 62.1 °F 90% 29.82 in 10.0 mi West 5.8 mph - N/A   Clear
9:00 AM 64.4 °F 62.6 °F 94% 29.88 in 10.0 mi SW 12.7 mph 20.7 mph N/A   Scattered Clouds
9:09 AM 64.4 °F 62.6 °F 94% 29.89 in 10.0 mi WSW 10.4 mph 18.4 mph N/A   Mostly Cloudy
9:31 AM 64.4 °F 62.6 °F 94% 29.90 in 10.0 mi SW 10.4 mph - N/A   Mostly Cloudy
9:53 AM 66.9 °F 62.1 °F 84% 29.88 in 10.0 mi SSW 10.4 mph 18.4 mph N/A   Partly Cloudy
10:53 AM 66.9 °F 61.0 °F 81% 29.84 in 10.0 mi SSW 4.6 mph - N/A   Clear
11:53 AM 64.9 °F 62.1 °F 90% 29.87 in 10.0 mi WNW 6.9 mph 20.7 mph 0.02 in   Mostly Cloudy
12:04 PM 64.4 °F 62.6 °F 94% 29.90 in 10.0 mi Variable 4.6 mph - N/A   Mostly Cloudy
12:41 PM 66.2 °F 62.6 °F 88% 29.91 in 10.0 mi SW 11.5 mph - N/A   Overcast
12:53 PM 66.0 °F 61.0 °F 84% 29.89 in 10.0 mi SW 16.1 mph 20.7 mph N/A   Overcast
1:18 PM 64.4 °F 60.8 °F 88% 29.91 in 10.0 mi SSW 10.4 mph 19.6 mph N/A   Mostly Cloudy
1:53 PM 64.0 °F 61.0 °F 90% 29.90 in 8.0 mi SSW 9.2 mph 17.3 mph 0.01 in Rain Light Rain
2:53 PM 63.0 °F 61.0 °F 93% 29.83 in 10.0 mi WSW 4.6 mph - 0.06 in Rain Light Rain
3:53 PM 66.9 °F 62.1 °F 84% 29.78 in 10.0 mi WSW 5.8 mph - 0.00 in   Partly Cloudy
4:53 PM 69.1 °F 63.0 °F 81% 29.72 in 10.0 mi SSE 5.8 mph - N/A   Scattered Clouds
5:53 PM 68.0 °F 61.0 °F 78% 29.81 in 10.0 mi West 11.5 mph 21.9 mph N/A   Mostly Cloudy
6:53 PM 64.9 °F 59.0 °F 81% 29.83 in 10.0 mi WSW 10.4 mph - N/A   Mostly Cloudy
7:53 PM 64.0 °F 57.9 °F 80% 29.78 in 10.0 mi SW 9.2 mph - N/A   Mostly Cloudy
8:53 PM 62.1 °F 57.9 °F 86% 29.72 in 10.0 mi South 6.9 mph - N/A   Partly Cloudy
9:53 PM 62.1 °F 59.0 °F 90% 29.66 in 10.0 mi East 6.9 mph 16.1 mph N/A   Clear
10:46 PM 60.8 °F 59.0 °F 94% 29.80 in 10.0 mi West 8.1 mph - N/A   Scattered Clouds
10:53 PM 61.0 °F 59.0 °F 93% 29.78 in 10.0 mi West 8.1 mph - N/A   Mostly Cloudy
11:21 PM 60.8 °F 57.2 °F 88% 29.79 in 10.0 mi Calm Calm - N/A   Scattered Clouds
11:53 PM 57.9 °F 57.0 °F 97% 29.78 in 10.0 mi SSW 4.6 mph - N/A   Partly Cloudy